Home   Weather   Hudson   Past weeks

Flag for USA Past Weather in Hudson, Wisconsin, USA — Yesterday and Last 2 Weeks

Now
73 °F

More clouds than sun.


Feels Like: 76 °F
Forecast: 60 / 72 °F
Wind: 10 mph from Northwest

Location: St. Paul Downtown Holman Field

Current Time: Jul 23, 2017 at 1:55:34 pm

Latest Report: Jul 23, 2017 at 12:53 pm


Visibility: 10 mi

Pressure: 29.92 "Hg

Humidity: 66%

Dew Point: 61 °F

Location of HudsonLocation

Past Weather in Hudson — Graph

°F

Hudson Temperature Yesterday

Maximum temperature yesterday: 88 °F (at 2:53 pm)
Minimum temperature yesterday: 68 °F (at 5:37 am)
Average temperature yesterday: 78 °F

High & Low Weather Summary for the Past Weeks

 TemperatureHumidityPressure
High93 °F (Jul 15, 2:53 pm)100% (Jul 17, 10:26 pm)30.22 "Hg (Jul 17, 10:26 pm)
Low57 °F (Jul 13, 6:53 am)35% (Jul 8, 4:53 pm)29.69 "Hg (Jul 12, 2:01 am)
Average73 °F75%29.94 "Hg
* Reported Jul 8 11:53 am — Jul 23 11:53 am, Hudson. Weather by CustomWeather, © 2017

Note: Actual official high and low records may vary slightly from our data, if they occured in-between our weather recording intervals... More about our weather records

Advertising

Hudson Weather History for the Previous 24 Hours

Scroll right to see more
 ConditionsComfort  
Time TempWeatherWind HumidityBarometerVisibility
11:53 am
Sun, Jul 23
73 °FPartly sunny.9 mph66%29.91 "Hg10 mi
11:23 am71 °FMore clouds than sun.12 mph68%29.92 "Hg10 mi
9:53 am73 °FScattered clouds.13 mph64%29.87 "Hg10 mi
8:53 am71 °FSunny.9 mph68%29.87 "Hg10 mi
7:53 am69 °FSunny.10 mph70%29.87 "Hg10 mi
6:53 am67 °FScattered clouds.7 mph73%29.85 "Hg10 mi
5:53 am67 °FScattered clouds.6 mph73%29.83 "Hg10 mi
4:53 am70 °FOvercast.7 mph64%29.82 "Hg10 mi
3:53 am69 °FPassing clouds.6 mph68%29.81 "Hg10 mi
2:53 am71 °FPassing clouds.5 mph66%29.80 "Hg10 mi
1:53 am69 °FClear.3 mph87%29.81 "Hg10 mi
12:53 am71 °FPassing clouds.No wind81%29.82 "Hg10 mi
11:53 pm
Sat, Jul 22
72 °FClear.No wind78%29.81 "Hg10 mi
10:53 pm76 °FClear.No wind62%29.81 "Hg10 mi
9:53 pm79 °FClear.8 mph58%29.81 "Hg10 mi
8:53 pm81 °FPassing clouds.8 mph53%29.80 "Hg10 mi
7:53 pm84 °FScattered clouds.12 mph49%29.79 "Hg10 mi
6:53 pm87 °FSunny.14 mph46%29.78 "Hg10 mi
5:53 pm87 °FPassing clouds.12 mph45%29.78 "Hg10 mi
4:53 pm87 °FScattered clouds.13 mph43%29.77 "Hg10 mi
3:53 pm88 °FPartly sunny.16 mph50%29.78 "Hg10 mi
2:53 pm88 °FPassing clouds.12 mph50%29.78 "Hg10 mi
1:53 pm87 °FSunny.8 mph53%29.78 "Hg10 mi
Weather by CustomWeather, © 2017

See weather overviewHow to use our weather pages